Date String (YYYY-MM-DD hh:mm:ss) UTC,Instrument flags,Ambient pressure (hPa),Sample flow (lpm),Bypass flow (lpm),Sample temperature (°C),Ambient temperature (°C),ASC tube jacket temperature (°C),LED temperature (°C),Box temperature (°C),Sample RH (%),Span deviation,Mass concentration (μg/m³),Mass concentration (μg/m³),Mass concentration (μg/m³)
DateTimeUTC,F1_M11,P_M11,Q1_M11,Q2_M11,T1_M11,T2_M11,T3_M11,T4_M11,T5_M11,U1_M11,ZSPAN_M11,X0_M11,X2_M11,X1_M11
2021-10-11 19:00:00,,0818.7,4.99,0.00,29.6,26.9,00.0,38.8,31.0,12.7,0000.0,0013.33,0004.38,0003.53
2021-10-11 19:01:00,,0818.7,5.01,0.00,29.6,27.3,00.0,38.8,31.1,12.8,0000.0,0012.66,0004.34,0003.52
2021-10-11 19:02:00,,0818.6,4.99,0.00,29.6,27.7,00.0,38.8,31.2,12.9,0000.0,0012.41,0004.29,0003.51
2021-10-11 19:03:00,,0818.7,5.01,0.00,29.6,28.0,00.0,38.8,31.3,13.0,0000.8,0012.39,0004.27,0003.48
2021-10-11 19:04:00,,0818.7,5.00,0.00,29.6,28.2,00.0,38.8,31.3,12.7,0000.0,0012.48,0004.25,0003.46
2021-10-11 19:05:00,,0818.5,5.00,0.00,29.6,28.3,00.0,38.8,31.3,12.4,0000.0,0012.38,0004.21,0003.46
2021-10-11 19:06:00,,0818.5,5.01,0.00,29.7,28.5,00.0,38.8,31.4,12.6,0000.0,0012.11,0004.20,0003.45
2021-10-11 19:07:00,,0818.5,4.99,0.00,29.7,28.6,00.0,38.8,31.4,12.4,0000.0,0012.14,0004.17,0003.45
2021-10-11 19:08:00,,0818.4,5.00,0.00,29.7,28.7,00.0,38.8,31.5,12.3,0000.0,0012.64,0004.20,0003.45
2021-10-11 19:09:00,,0818.4,5.00,0.00,29.7,28.7,00.0,38.8,31.5,12.4,0000.0,0012.04,0004.19,0003.46
2021-10-11 19:10:00,,0818.4,5.00,0.00,29.7,28.8,00.0,38.8,31.5,12.4,0000.0,0011.33,0004.19,0003.47
2021-10-11 19:11:00,,0818.4,5.02,0.00,29.7,28.8,00.0,38.8,31.5,12.5,0000.0,0011.44,0004.19,0003.46
2021-10-11 19:12:00,,0818.4,5.01,0.00,29.8,28.9,00.0,38.8,31.5,12.6,0000.0,0011.37,0004.18,0003.46
2021-10-11 19:13:00,,0818.4,5.00,0.00,29.8,28.9,00.0,38.8,31.6,12.8,0000.0,0011.23,0004.24,0003.46
2021-10-11 19:14:00,,0818.4,5.00,0.00,29.8,29.0,00.0,38.8,31.5,12.6,0000.0,0011.16,0004.25,0003.47
2021-10-11 19:15:00,,0818.4,5.00,0.00,29.8,29.0,00.0,38.8,31.6,12.6,0000.0,0011.06,0004.23,0003.47
2021-10-11 19:16:00,,0818.3,5.01,0.00,29.8,29.1,00.0,38.9,31.6,12.5,0000.0,0010.96,0004.22,0003.46
2021-10-11 19:17:00,,0818.2,5.00,0.00,29.8,29.1,00.0,38.9,31.6,12.6,0000.0,0011.56,0004.25,0003.46
2021-10-11 19:18:00,,0818.2,4.98,0.00,29.9,29.1,00.0,38.9,31.6,12.4,0000.0,0011.93,0004.27,0003.47
2021-10-11 19:19:00,,0818.2,5.00,0.00,29.9,29.1,00.0,38.9,31.6,12.4,0000.0,0010.85,0004.27,0003.48
2021-10-11 19:20:00,,0818.2,5.00,0.00,29.9,29.2,00.0,38.9,31.6,12.4,0000.0,0010.12,0004.25,0003.47
2021-10-11 19:21:00,,0818.2,5.00,0.00,29.9,29.2,00.0,38.9,31.7,12.6,0000.0,0010.18,0004.28,0003.46
2021-10-11 19:22:00,,0818.1,5.00,0.00,30.0,29.2,00.0,38.9,31.7,12.4,0000.0,0011.19,0004.27,0003.47
2021-10-11 19:23:00,,0818.0,5.01,0.00,30.0,29.3,00.0,39.0,31.8,12.4,0000.0,0011.64,0004.31,0003.48
2021-10-11 19:24:00,,0818.0,4.99,0.00,30.0,29.3,00.0,39.0,31.7,12.2,0000.0,0011.48,0004.27,0003.48
2021-10-11 19:25:00,,0818.0,5.00,0.00,30.0,28.1,00.0,39.0,31.5,12.0,0000.0,0011.36,0004.27,0003.48
2021-10-11 19:26:00,,0818.0,5.00,0.00,29.8,26.9,00.0,38.9,31.1,12.2,0000.0,0011.41,0004.30,0003.49
2021-10-11 19:27:00,,0818.0,5.01,0.00,29.8,27.0,00.0,38.9,31.1,12.3,0000.0,0011.84,0004.36,0003.50
2021-10-11 19:28:00,,0818.0,4.99,0.00,29.7,27.3,00.0,38.9,31.2,12.3,0000.0,0012.05,0004.38,0003.51
2021-10-11 19:29:00,,0818.0,5.01,0.00,29.7,27.7,00.0,38.8,31.2,12.3,0000.0,0011.76,0004.35,0003.50
2021-10-11 19:30:00,,0818.0,4.98,0.00,29.7,28.0,00.0,38.8,31.3,12.4,0000.0,0011.78,0004.31,0003.51
2021-10-11 19:31:00,,0818.0,5.02,0.00,29.7,28.2,00.0,38.8,31.4,12.6,0000.0,0012.01,0004.29,0003.51
2021-10-11 19:32:00,,0818.0,5.00,0.00,29.7,28.4,00.0,38.8,31.5,12.7,0000.0,0012.41,0004.27,0003.52
2021-10-11 19:33:00,,0818.0,5.00,0.00,29.8,28.6,00.0,38.8,31.5,12.4,0000.0,0012.12,0004.27,0003.53
2021-10-11 19:34:00,,0818.0,5.00,0.00,29.8,28.7,00.0,38.8,31.6,12.3,0000.0,0011.01,0004.29,0003.53
2021-10-11 19:35:00,,0818.0,5.01,0.00,29.8,28.8,00.0,38.8,31.6,12.3,0000.0,0011.06,0004.31,0003.53
2021-10-11 19:36:00,,0818.0,4.98,0.00,29.9,28.9,00.0,38.9,31.7,12.3,0000.0,0011.74,0004.28,0003.52
2021-10-11 19:37:00,,0817.9,5.00,0.00,29.9,29.0,00.0,38.9,31.7,11.9,0000.0,0011.86,0004.27,0003.52
2021-10-11 19:38:00,,0817.9,5.00,0.00,29.9,29.0,00.0,38.9,31.7,11.8,0000.0,0011.68,0004.27,0003.52
2021-10-11 19:39:00,,0817.9,5.00,0.00,29.9,29.0,00.0,38.9,31.7,11.8,0000.0,0011.39,0004.20,0003.51
2021-10-11 19:40:00,,0817.8,5.01,0.00,29.9,29.1,00.0,38.9,31.7,11.9,0000.0,0012.10,0004.23,0003.50
2021-10-11 19:41:00,,0817.9,5.01,0.00,29.9,29.1,00.0,39.0,31.7,12.1,0000.0,0012.84,0004.25,0003.48
2021-10-11 19:42:00,,0817.9,4.99,0.00,29.9,29.1,00.0,39.0,31.7,11.8,0000.0,0012.77,0004.26,0003.47
2021-10-11 19:43:00,,0817.9,4.99,0.00,29.9,29.1,00.0,39.0,31.7,11.7,0000.0,0012.67,0004.30,0003.47
2021-10-11 19:44:00,,0817.8,5.01,0.00,29.9,29.1,00.0,39.0,31.7,11.8,0000.0,0012.45,0004.30,0003.46
2021-10-11 19:45:00,,0817.8,5.00,0.00,29.9,29.2,00.0,39.0,31.7,11.6,0000.0,0013.45,0004.28,0003.46
2021-10-11 19:46:00,,0817.8,4.99,0.00,30.0,29.2,00.0,39.0,31.7,11.8,0000.0,0013.32,0004.23,0003.46
2021-10-11 19:47:00,,0817.7,4.99,0.00,30.0,29.2,00.0,39.0,31.7,11.8,0000.0,0013.11,0004.23,0003.46
2021-10-11 19:48:00,,0817.7,5.01,0.00,30.0,29.2,00.0,39.0,31.7,11.7,0000.0,0013.36,0004.24,0003.46
2021-10-11 19:49:00,,0817.6,4.99,0.00,30.0,27.9,00.0,39.0,31.4,12.0,0000.0,0013.47,0004.19,0003.46
2021-10-11 19:50:00,,0817.6,5.01,0.00,29.8,26.7,00.0,39.0,31.1,12.0,0000.0,0014.07,0004.20,0003.46
2021-10-11 19:51:00,,0817.7,5.00,0.00,29.7,26.8,00.0,38.9,31.1,12.2,0000.0,0013.24,0004.20,0003.46
2021-10-11 19:52:00,,0817.6,5.01,0.00,29.7,27.2,00.0,38.9,31.2,12.0,0000.0,0012.73,0004.21,0003.48
2021-10-11 19:53:00,,0817.6,4.98,0.00,29.7,27.5,00.0,38.9,31.2,12.1,0000.0,0012.98,0004.23,0003.48
2021-10-11 19:54:00,,0817.6,5.01,0.00,29.7,27.8,00.0,38.8,31.3,12.0,0000.0,0013.67,0004.21,0003.47
2021-10-11 19:55:00,,0817.6,5.00,0.00,29.7,28.0,00.0,38.8,31.4,11.9,0000.0,0013.41,0004.20,0003.46
2021-10-11 19:56:00,,0817.5,5.01,0.00,29.7,28.3,00.0,38.8,31.4,12.1,0000.0,0012.43,0004.15,0003.45
2021-10-11 19:57:00,,0817.5,4.99,0.00,29.7,28.4,00.0,38.8,31.5,12.2,0000.0,0012.93,0004.17,0003.44
2021-10-11 19:58:00,,0817.5,5.01,0.00,29.7,28.5,00.0,38.8,31.5,11.8,0000.0,0012.99,0004.20,0003.42
2021-10-11 19:59:00,,0817.5,4.99,0.00,29.8,28.7,00.0,38.8,31.6,11.9,0000.0,0012.54,0004.22,0003.40
